Home   Weather   Hialeah   Past weeks
Flag for USA

Past Weather in Hialeah, Florida, USA — Yesterday and Last 2 Weeks

Now
67 °F

Clear.


Feels Like: 67 °F
Forecast: 78 / 59 °F
Wind: No wind

Location: Opa Locka Airport

Current Time: Jan 17, 2019 at 8:32:48 pm

Latest Report: Jan 17, 2019 at 7:53 pm


Visibility: 10 mi

Pressure: 30.18 "Hg

Humidity: 76%

Dew Point: 59 °F

Location of HialeahLocation

Past Weather in Hialeah — Graph

°F

Hialeah Temperature Yesterday

Maximum temperature yesterday: 74 °F (at 1:53 pm)
Minimum temperature yesterday: 52 °F (at 4:53 am)
Average temperature yesterday: 62 °F

High & Low Weather Summary for the Past Weeks

 TemperatureHumidityPressure
High84 °F (Jan 4, 2:53 pm)97% (Jan 13, 6:53 am)30.24 "Hg (Jan 13, 6:53 am)
Low52 °F (Jan 16, 4:53 am)21% (Jan 10, 2:53 pm)29.97 "Hg (Jan 4, 2:53 pm)
Average69 °F71%30.12 "Hg
* Reported Jan 2 6:53 pm — Jan 17 6:53 pm, Hialeah. Weather by CustomWeather, © 2019

Note: Actual official high and low records may vary slightly from our data, if they occured in-between our weather recording intervals... More about our weather records

Advertising

Hialeah Weather History for the Previous 24 Hours

Scroll right to see more
 ConditionsComfort  
Time TempWeatherWind HumidityBarometerVisibility
6:53 pm
Thu, Jan 17
69 °FClear.5 mph73%30.17 "Hg10 mi
5:53 pm71 °FPassing clouds.8 mph68%30.15 "Hg10 mi
4:53 pm75 °FScattered clouds.8 mph55%30.15 "Hg10 mi
3:53 pm77 °FMostly cloudy.9 mph54%30.15 "Hg10 mi
2:53 pm78 °FSunny.7 mph50%30.15 "Hg10 mi
1:53 pm76 °FMostly cloudy.5 mph52%30.16 "Hg10 mi
12:53 pm77 °FPassing clouds.No wind50%30.18 "Hg10 mi
11:53 am76 °FSunny.6 mph50%30.22 "Hg10 mi
10:53 am74 °FSunny.5 mph52%30.24 "Hg10 mi
9:53 am68 °FSunny.3 mph61%30.23 "Hg10 mi
8:53 am60 °FPassing clouds.6 mph75%30.22 "Hg10 mi
7:53 am56 °FSunny.6 mph84%30.21 "Hg10 mi
6:53 am55 °FClear.6 mph87%30.20 "Hg10 mi
5:53 am55 °FClear.6 mph87%30.18 "Hg10 mi
4:53 am56 °FClear.6 mph84%30.17 "Hg10 mi
3:53 am56 °FClear.7 mph84%30.18 "Hg10 mi
2:53 am57 °FClear.9 mph81%30.19 "Hg10 mi
1:53 am57 °FClear.6 mph81%30.19 "Hg10 mi
12:53 am59 °FClear.8 mph75%30.20 "Hg10 mi
11:53 pm
Wed, Jan 16
59 °FClear.9 mph75%30.21 "Hg10 mi
10:53 pm61 °FClear.10 mph75%30.22 "Hg10 mi
9:53 pm61 °FClear.7 mph72%30.21 "Hg10 mi
8:53 pm62 °FClear.8 mph65%30.20 "Hg10 mi
Weather by CustomWeather, © 2019

See weather overview